sat.trackr.live / text

‹ back to catalog

STARLINK-36267

NORAD 67198 · 2025-304G

PAYLOAD ACTIVE UNKNOWN

§ Identity

Operator
Country
US
Launch date
2025-12-17
Launch site
AFWTR
Launch vehicle
Mass (kg)
RCS (m²)

Purposes: comms

External: N2YO · Heavens-Above · Gunter

§ Orbital elements

Epoch: 2026-09-19T18:18:38.289024Z

Period
96.11 min
Inclination
70.0018°
Eccentricity
0.0003088
Mean motion
14.98332185 rev/d
Perigee alt
569.9 km
Apogee alt
574.2 km
Semi-major
6,950.2 km
B*
7.7434e-5
RAAN
45.1859°
Arg perigee
265.1190°
Mean anomaly
94.9616°
Rev number
4,292

§ Raw data

STARLINK-362671 67198U 25304G   26262.76294316  .00000831  00000+0  77434-4 0  99912 67198  70.0018  45.1859 0003088 265.1190  94.9616 14.98332185 42920

JSON: /api/v1/satellites/67198 · /tle

For live sub-satellite position, see the globe view (requires WebGL).

§ Visibility from observer

Set your observer location to see the next 7 days of passes ≥ 10°. The values pass through the URL so the page stays shareable.

No JS? Fill the form by hand. The geolocation button needs JavaScript.